Cambridge 100
12 May 2019

     

Page 1 of 4 (188 items)
Race NoNameChip TimeGenderPace
3118Johnathan Sutton04:13:05Male23.0 m/hr
3115Melanie Staley04:35:04Female21.2 m/hr
3103Adam Cleevely05:15:11Male18.5 m/hr
3102Adam Knight05:18:03Male18.3 m/hr
3133Muhammed Maliki05:46:32Male16.8 m/hr
3008Nathan Clough06:01:47Male16.1 m/hr
3160Rachael Davies06:06:25Female15.9 m/hr
3111Andrew Hornsblow06:12:56Male15.6 m/hr
3198Jane Newman06:16:35Female15.5 m/hr
3155Graham Moore06:16:47Male15.4 m/hr
3073Steve Dann06:20:41Male15.3 m/hr
3079Chris Cope06:20:44Male15.3 m/hr
3119Andrew Pakes06:23:59Male15.2 m/hr
3099Andrew Morgan06:31:01Male14.9 m/hr
3106Wayne Steel06:33:05Male14.8 m/hr
3069Graeme Howard06:34:51Male14.7 m/hr
3104Philip Brown06:36:57Male14.7 m/hr
3098Andrew West06:39:04Male14.6 m/hr
3043Chris Davie06:43:47Male14.4 m/hr
3061Stephen Higgins06:45:25Male14.4 m/hr
3078James Cardwell06:46:40Male14.3 m/hr
3057Matthew Burton06:48:31Male14.2 m/hr
3067Jack Robertson06:49:30Male14.2 m/hr
3123Graham Knighton06:56:09Male14.0 m/hr
3108Brian Heffernan06:57:38Male13.9 m/hr
3045Nicholas Barber06:59:11Male13.9 m/hr
3046Douglas Hiscock06:59:12Male13.9 m/hr
3101James Gough07:00:00Male13.9 m/hr
3100Mark West07:00:00Male13.9 m/hr
3112Katherine Trezise07:01:21Female13.8 m/hr
3081Jon Nicholson07:06:53Male13.6 m/hr
3095Barney Poulton07:07:12Male13.6 m/hr
3082Terry Spencer07:08:32Male13.6 m/hr
3136Harriet Rhodes07:09:04Female13.6 m/hr
3034James Cooke07:09:28Male13.6 m/hr
3076Tom Ringer07:09:29Male13.6 m/hr
3007Kirstie Bransfield-Garth07:10:00Female13.5 m/hr
3006Simon Bransfield-Garth07:10:11Male13.5 m/hr
3023Nigel Morris07:10:53Male13.5 m/hr
3024Sue Graham07:10:55Female13.5 m/hr
3151Adrian Taverna07:10:58Male13.5 m/hr
3022Janie Morris07:11:20Female13.5 m/hr
3178Colin Wadley07:11:33Male13.5 m/hr
3180Elizabeth Tattersall07:12:09Female13.5 m/hr
3186Tony Pither07:12:09Male13.5 m/hr
3152Ian Cammish07:14:16Male13.4 m/hr
3179Mark Crowther07:16:54Male13.3 m/hr
3116Darryl Whittingstall07:17:48Male13.3 m/hr
3005James Dyer07:20:15Male13.2 m/hr
3137Mike Hopwood07:23:04Male13.1 m/hr
Page 1 of 4 (188 items)